Terminal Aerodrome Forecast
Issued by NWS

Home | Current Version | Previous Version | Text Only | Print | Product List | Glossary On
Versions: 1 2 3 4 5 6 7 8 9 10 11 12 13 14 15 16 17 18 19 20 21 22 23 24 25 26 27
000
FTUS42 KCAE 080540
TAFCUB
TAF
KCUB 080540Z 0806/0906 VRB03KT P6SM SCT250
     FM081500 23006KT P6SM SCT050
     FM090100 VRB03KT P6SM FEW080 SCT250=

USA.gov is the U.S. government's official web portal to all federal, state and local government web resources and services.